NIUSat
1 42766U 17036B 23005.33999988 .00015278 00000-0 51852-3 0 9997
2 42766 97.1798 41.1817 0011517 336.5358 23.5357 15.30534123307639
Aalto 1
1 42775U 17036L 23005.32691925 .00011722 00000-0 41916-3 0 9996
2 42775 97.1747 40.6424 0010797 337.9311 22.1463 15.28900757307588
URSA MAIOR
1 42776U 17036M 23005.54045201 .00014055 00000-0 48700-3 0 9991
2 42776 97.1759 41.8244 0010332 335.2258 24.8485 15.29891617307668
Max Valier Sat
1 42778U 17036P 23005.38509950 .00016536 00000-0 54998-3 0 9993
2 42778 97.1810 44.7447 0008997 336.7523 23.3310 15.31197630307758
Pegasus
1 42784U 17036V 23005.37705971 .00019437 00000-0 58492-3 0 9996
2 42784 97.1744 46.1268 0008062 334.8649 25.2201 15.34371023307910
NUDATSat
1 42787U 17036Y 23005.57160247 .00046097 00000-0 98685-3 0 9992
2 42787 97.1738 52.5022 0006165 312.1046 47.9722 15.44630081308167
SUCHAI 1
1 42788U 17036Z 23005.06035321 .00031157 00000-0 84038-3 0 9999
2 42788 97.1740 48.1643 0007090 329.6000 30.4834 15.37713906308084
SKCUBE
1 42789U 17036AA 23005.39247407 .00022750 00000-0 64637-3 0 9998
2 42789 97.1740 47.6356 0007314 329.6268 30.4552 15.36155328308001
VZLUSAT 1
1 42790U 17036AB 23005.54738014 .00045786 00000-0 99369-3 0 9990
2 42790 97.1743 52.3776 0005358 315.1900 44.8915 15.44232092308302
VENTA 1
1 42791U 17036AC 23005.28611394 .00019960 00000-0 59550-3 0 9996
2 42791 97.1749 47.1581 0007367 332.6233 27.4621 15.34643624307957
Robusta 1B
1 42792U 17036AD 23005.38190319 .00024659 00000-0 67674-3 0 9994
2 42792 97.1734 48.4010 0006693 329.5235 30.5620 15.37225761308069
D-SAT
1 42794U 17036AF 23005.26615203 .00003030 00000-0 25225-3 0 9993
2 42794 97.4566 5.2162 0121990 128.5588 232.6640 14.93700675301593
TechnoSat
1 42829U 17042E 23005.20421500 .00002010 00000-0 20064-3 0 9991
2 42829 97.3976 212.3862 0015205 55.3818 304.8833 14.92472817298176
AO-91
1 43017U 17073E 23005.43016332 .00006980 00000-0 51421-3 0 9994
2 43017 97.6526 256.2872 0241115 245.3681 112.2247 14.83239235277035
PICSAT
1 43132U 18004X 23005.47196036 .00028110 00000-0 73840-3 0 9999
2 43132 97.3546 86.3860 0006909 3.8055 356.3242 15.38555815277383
AO-92
1 43137U 18004AC 23005.44560603 .00018980 00000-0 56900-3 0 9998
2 43137 97.3504 84.1751 0007360 15.0144 345.1316 15.34505470277266
TianYi 2
1 43155U 18008A 23005.50895115 .00012338 00000-0 59531-3 0 9992
2 43155 97.3267 62.5035 0015296 155.8058 320.0919 15.18716998273900
Zhou Enlai
1 43156U 18008B 23005.47992861 .00013691 00000-0 66103-3 0 9991
2 43156 97.3312 62.4314 0012986 154.7953 329.4776 15.18699559273824
TianYi 6
1 43158U 18008D 23005.41165126 .00010783 00000-0 54615-3 0 9997
2 43158 97.3296 59.8806 0012262 157.3790 214.7782 15.17092219273695
S-Net D
1 43186U 18014G 23005.51762277 .00003182 00000-0 26844-3 0 9994
2 43186 97.6471 272.3247 0010685 343.6810 16.4067 14.98818661269171
S-Net B
1 43187U 18014H 23005.51808427 .00003158 00000-0 26644-3 0 9994
2 43187 97.6467 272.2663 0010670 343.4671 16.6202 14.98814999269178
S-Net A
1 43188U 18014J 23005.51837603 .00003140 00000-0 26498-3 0 9991
2 43188 97.6472 272.3424 0010652 343.5080 16.5795 14.98815471269178
S-Net C
1 43189U 18014K 23005.51955983 .00003213 00000-0 27105-3 0 9991
2 43189 97.6464 272.2533 0010588 342.9625 17.1240 14.98809524267729
FMN 1
1 43192U 18015A 23005.51563906 .00095029 00000-0 12879-2 0 9993
2 43192 97.5515 163.5757 0008155 9.7331 30.8650 15.57317587274654
Shaonian Xing
1 43199U 18015H 23005.51882626 .00035908 00000-0 79812-3 0 9994
2 43199 97.5326 155.9157 0011429 38.3135 30.6460 15.43523593274500
SurfSat
1 43614U 18070B 23005.54316674 .00326965 39364-4 10817-2 0 9999
2 43614 92.9932 185.5708 0005360 303.5690 56.5079 15.90345653242694
CP-7 DAVE
1 43615U 18070C 23005.43004584 .00181063 00000-0 92422-3 0 9994
2 43615 92.9945 184.9673 0006140 302.8872 57.1813 15.80868585242588
CubeBel-1
1 43666U 18083E 23005.48415255 .00018591 00000-0 68520-3 0 9997
2 43666 97.4032 37.2187 0011811 349.1804 148.5208 15.27796023232277
Changshagaoxin
1 43669U 18083H 23005.49385825 .00015372 00000-0 60345-3 0 9991
2 43669 97.3990 32.5649 0008600 352.3087 145.1199 15.25775300232066
Ten-Koh
1 43677U 18084G 23005.36276371 .00001943 00000-0 19830-3 0 9994
2 43677 97.9883 142.6786 0014924 330.2980 29.7389 14.91764654227772
PO-101
1 43678U 18084H 23005.33486033 .00001284 00000-0 13051-3 0 9997
2 43678 97.9954 146.3821 0009490 347.2840 12.8206 14.92607149227966
IRVINE 01
1 43693U 18088D 23004.90765781 .00307132 00000-0 23937-2 0 9994
2 43693 85.0151 171.9751 0006828 15.0227 345.1242 15.70784948231391
QO-100
1 43700U 18090A 23005.53477745 .00000157 00000-0 00000-0 0 9997
2 43700 0.0166 46.1986 0001928 274.9812 1.9782 1.00273409 15050
Reaktor Hello World
1 43743U 18096AA 23005.45448973 .00025176 00000-0 61496-3 0 9999
2 43743 97.3382 90.1003 0013874 55.1869 305.0680 15.40723650228989
MinXSS-2
1 43758U 18099A 23005.44850236 .00005263 00000-0 44097-3 0 9999
2 43758 97.6010 73.3980 0013435 307.2312 52.7685 14.98766562223347
AO-95
1 43770U 18099N 23005.05972995 .00005321 00000-0 45921-3 0 9999
2 43770 97.5981 71.0390 0012466 325.4510 34.5901 14.97618542223175
RANGE-B
1 43772U 18099Q 23005.14963926 .00005840 00000-0 49057-3 0 9995
2 43772 97.6125 73.3413 0011994 311.2840 48.7350 14.98635221223228
RANGE-A
1 43773U 18099R 23005.45587550 .00003817 00000-0 33707-3 0 9992
2 43773 97.5899 69.9400 0011516 310.5257 49.4961 14.96896636223208
MOVE-II
1 43780U 18099Y 23005.46713896 .00008910 00000-0 72448-3 0 9999
2 43780 97.6047 73.1645 0010065 325.5234 34.5336 14.99758823223310
SNUSat 2
1 43782U 18099AA 23005.42329594 .00003262 00000-0 28304-3 0 9992
2 43782 97.5983 71.9034 0011239 307.6964 52.3239 14.97696985223254
SnugLite
1 43784U 18099AC 23005.42537973 .00003893 00000-0 33369-3 0 9993
2 43784 97.5940 71.5288 0013699 313.9690 46.0402 14.98034600223280
ITASat 1
1 43786U 18099AE 23005.44341111 .00003666 00000-0 31808-3 0 9998
2 43786 97.6000 72.4262 0013526 313.1241 46.8849 14.97601831223272
EAGLET 1
1 43790U 18099AJ 23005.45981153 .00003466 00000-0 30122-3 0 9996
2 43790 97.5999 72.9816 0011517 319.1417 40.8941 14.97586399223012
ESEO
1 43792U 18099AL 23005.48950684 .00001160 00000-0 10647-3 0 9995
2 43792 97.5948 71.8892 0012128 317.0826 42.9449 14.96704309223041
CSIM
1 43793U 18099AM 23005.48437601 .00007142 00000-0 57161-3 0 9993
2 43793 97.6102 74.3181 0014501 307.7177 52.2732 15.00400871223150
Astrocast 0.1
1 43798U 18099AS 23005.41763673 .00005888 00000-0 48660-3 0 9991
2 43798 97.6046 73.8133 0010255 297.3278 62.6901 14.99275537223352
JO-97
1 43803U 18099AX 23005.17853620 .00005044 00000-0 42717-3 0 9994
2 43803 97.5959 72.0116 0013187 311.7395 48.2699 14.98370410223260
Suomi 100
1 43804U 18099AY 23005.41400075 .00003870 00000-0 33025-3 0 9991
2 43804 97.5980 72.1139 0013313 315.1510 44.8636 14.98210541223305
Al Farabi 2
1 43805U 18099AZ 22364.16247822 .00003922 00000-0 32713-3 0 9991
2 43805 97.6006 66.7831 0014644 333.7607 26.2875 14.99080958222402
CHOMPTT
1 43855U 18104G 23005.17397552 .00016026 00000-0 52013-3 0 9997
2 43855 85.0339 276.2851 0012264 197.2328 162.8505 15.31755349225552
ISAT
1 43879U 18111D 23005.17399401 .00005037 00000-0 41418-3 0 9993
2 43879 97.6563 272.1434 0013740 7.3433 352.7988 14.99513284219883
UWE-4
1 43880U 18111E 23005.49474482 .00006148 00000-0 50345-3 0 9996
2 43880 97.6617 273.2795 0012803 17.0077 343.1573 14.99593529219961
Sparrow
1 43881U 18111F 23005.55276741 .00006916 00000-0 56220-3 0 9993
2 43881 97.6602 273.6534 0012043 19.3413 340.8265 14.99837753217988
Lume 1
1 43908U 18111AJ 23005.40517521 .00019103 00000-0 55325-3 0 9998
2 43908 97.1653 252.1080 0018295 71.5181 288.8049 15.35446718224329
FO-99
1 43937U 19003F 23005.53927472 .00023572 00000-0 64781-3 0 9996
2 43937 97.1095 36.5309 0018615 143.4333 216.8187 15.37034612220949
AstroCast 0.2
1 44083U 19018F 23005.42156505 .00023438 00000-0 74005-3 0 9995
2 44083 97.2962 65.8288 0009038 119.2386 240.9762 15.32797697209358
AISTechSat 3
1 44103U 19018AB 23005.39977839 .00016209 00000-0 52682-3 0 9990
2 44103 97.2825 65.8565 0011875 131.7779 228.4480 15.31917707209515
AISat 1
1 44104U 19018AC 23005.50311081 .00014857 00000-0 36668-3 0 9998
2 44104 97.3853 94.7634 0048684 126.8043 233.7684 15.39366358210631
Prox-1
1 44339U 19036A 23005.35143263 .00006195 00000-0 13162-2 0 9995
2 44339 24.0026 357.5986 0009374 268.6731 91.2687 14.56574451187807
Oculus-ASR
1 44348U 19036K 23005.26936396 .00221087 74966-5 93149-3 0 9992
2 44348 28.4895 210.5999 0126921 103.3997 258.0792 15.72706131195897
NO-104
1 44354U 19036R 23005.59783461 .00241013 11158-4 82343-3 0 9996
2 44354 28.5151 186.4352 0109133 138.0583 222.8444 15.79280843196164
Move-IIb
1 44398U 19038N 22364.13309402 .00019028 00000-0 76981-3 0 9992
2 44398 97.6498 336.2487 0018884 162.3874 197.8024 15.24592615192784
SONATE
1 44400U 19038Q 23004.88761775 .00008685 00000-0 44006-3 0 9995
2 44400 97.6658 339.8860 0023100 154.0979 206.1416 15.16989594193441
BeeSat 9
1 44412U 19038AC 23005.14777099 .00016724 00000-0 75240-3 0 9991
2 44412 97.6593 341.7132 0019326 150.6544 209.5781 15.21010362193302
JAISAT-1
1 44419U 19038F 23005.40073682 .00014330 00000-0 63726-3 0 9991
2 44419 97.6596 342.9595 0018515 146.3009 213.9408 15.21457672193714
Taurus 1
1 44530U 19059C 23005.40441890 .00003527 00000-0 95919-3 0 9993
2 44530 98.5498 111.0338 0013028 223.5316 136.4885 14.48078429175065
Duchifat 3
1 44854U 19089C 23005.31187536 .00006582 00000-0 48707-3 0 9996
2 44854 36.9660 342.2748 0005914 57.7693 51.0842 15.02851685168290
OPS-SAT
1 44878U 19092F 23005.24008621 .00017589 00000-0 71487-3 0 9995
2 44878 97.4753 193.0460 0011736 1.5792 358.5481 15.24553991168882
TO-108
1 44881U 19093C 23005.40902251 .00000939 00000-0 12489-3 0 9998
2 44881 97.8775 86.5796 0013569 247.2041 112.7750 14.82011638164687
